Flag for Germany Weather past 2 weeks in Frechen, North Rhine-Westphalia, Germany

Now
66 °F

Partly sunny.


Feels Like: 66 °F
Forecast: 51 / 77 °F
Wind: 2 mph from Northeast

Location: Noervenich

Current Time: Jul 31, 2015 at 4:12:12 PM

Latest Report: Jul 31, 2015 at 3:20 PM


Visibility: N/A

Pressure: 30.07 "Hg

Humidity: 46%

Dew point: 45 °F

Location of FrechenLocation

Historic Weather in Frechen — Graph

°F

Frechen temperature yesterday

Maximum temperature yesterday: 63 °F (at 1:20 PM)
Minimum temperature yesterday: 50 °F (at 1:20 AM)
Average temperature yesterday: 54 °F

Past Weeks' High & Low Weather Summary

 TemperatureHumidityPressure
High93 °F (Jul 17, 3:20 PM)100% (Jul 19, 4:20 AM)30.15 "Hg (Jul 19, 4:20 AM)
Low46 °F (Jul 31, 6:20 AM)23% (Jul 17, 3:20 PM)29.53 "Hg (Jul 25, 7:20 AM)
Average66 °F71%29.89 "Hg
* Reported Jul 16 2:20 PM — Jul 31 2:20 PM, Frechen, Weather by CustomWeather, © 2015

Note: Actual official high and low records may vary slightly from our data, if they occured in-between our weather recording intervals... More about our weather records

Advertising

Frechen weather history for previous 24 hours

 ConditionsComfort  
Time TempWeatherWind HumidityBarometerVisibility
2:20 PM
Fri, Jul 31
64 °FPartly sunny.1 mph52%30.09 "HgN/A
1:20 PM63 °FScattered clouds.3 mph52%30.12 "HgN/A
12:20 PM61 °FScattered clouds.3 mph55%30.12 "HgN/A
11:20 AM59 °FScattered clouds.3 mph59%30.15 "HgN/A
10:20 AM55 °FScattered clouds.2 mph72%30.15 "HgN/A
9:20 AM55 °FPassing clouds.1 mph77%30.15 "HgN/A
8:20 AM54 °FPassing clouds.2 mph88%30.15 "Hg6 mi
7:20 AM50 °FFog.3 mph94%30.12 "Hg3 mi
6:20 AM46 °FFog.1 mph93%30.12 "Hg1 mi
5:20 AM48 °FFog.2 mph100%30.12 "Hg3 mi
4:20 AM48 °FFog.1 mph100%30.12 "Hg5 mi
3:20 AM50 °FPassing clouds.5 mph94%30.12 "HgN/A
2:20 AM50 °FPassing clouds.5 mph94%30.12 "HgN/A
1:20 AM52 °FPartly cloudy.6 mph94%30.12 "HgN/A
12:20 AM54 °FPartly cloudy.5 mph94%30.09 "HgN/A
11:20 PM
Thu, Jul 30
54 °FPartly cloudy.5 mph94%30.09 "HgN/A
10:20 PM52 °FBroken clouds.5 mph100%30.09 "HgN/A
9:20 PM52 °FRain showers. Broken clouds.3 mph94%30.07 "HgN/A
8:20 PM55 °FBroken clouds.6 mph82%30.07 "HgN/A
7:20 PM57 °FPartly sunny.3 mph88%30.04 "HgN/A
6:20 PM55 °FBroken clouds.6 mph94%30.04 "HgN/A
5:20 PM55 °FRain showers. Broken clouds.6 mph94%30.04 "Hg4 mi
4:20 PM61 °FBroken clouds.6 mph68%30.04 "HgN/A
Weather by CustomWeather, © 2015

See weather overviewHow to use our weather pages